Wind_Speed
4 4 2 3 2 3 3 6 4 6 4 4 5 7 7 3 3 3 16 15 16 12 11 11 7 7 7 7 9 10 12 13 12 13 12 11 11 10 11 13 14 13 12 9 10 11 12 13 14
5 5 3 1 2 1 5 6 2 5 7 9 20 21 6 0 8 13 22 17 12 8 8 8 7 6 7 8 10 13 14 15 15 13 13 13 14 15 13 14 14 13 14 13 11 11 13 13 13
7 6 2 3 3 5 5 5 5 10 12 9 5 5 9 10 12 14 12 15 12 9 4 5 9 10 10 10 13 15 16 16 15 15 16 16 18 17 15 15 16 16 15 14 15 13 12 15 15
6 3 5 2 9 8 5 12 11 7 6 5 11 7 7 5 12 14 15 13 11 8 6 9 11 10 9 11 15 15 14 14 16 18 19 20 20 19 18 18 19 18 18 17 17 17 14 14 16
8 2 2 4 7 7 7 15 11 4 5 7 5 4 7 19 12 18 17 14 13 13 12 12 10 12 13 16 16 15 15 12 14 17 21 22 21 21 21 21 21 19 20 19 19 19 19 16 18
3 1 1 4 7 6 8 9 19 9 4 10 8 14 10 16 18 18 14 15 16 10 11 11 11 12 12 17 17 17 19 15 14 13 15 17 21 23 23 23 23 22 22 22 21 21 21 18 18
4 2 5 5 13 12 4 10 6 11 6 2 16 7 9 24 21 17 16 14 13 10 10 12 10 11 14 14 14 16 19 15 13 15 14 14 15 19 21 23 23 22 24 25 24 23 22 22 19
6 4 4 5 6 16 7 12 18 3 10 15 17 8 7 28 23 19 16 10 7 9 12 13 11 14 14 13 13 18 15 11 12 14 16 17 16 16 16 17 17 18 19 21 22 23 25 24 21
7 2 7 7 6 12 18 5 14 15 7 9 11 12 12 23 25 23 20 14 15 17 15 15 16 15 11 10 17 16 13 13 14 15 17 19 18 17 16 14 13 13 14 14 20 22 23 24 23
10 5 12 13 11 11 23 10 14 7 16 4 9 9 9 27 31 27 21 17 20 20 20 19 15 11 8 13 16 12 13 15 15 16 18 18 19 16 14 13 13 12 15 16 16 20 22 23 24
9 10 23 21 26 27 26 21 22 8 7 8 15 18 22 31 29 26 20 14 19 22 23 19 14 11 13 19 17 14 14 16 17 15 16 18 14 12 12 12 12 12 12 19 17 16 21 23 24
7 19 27 32 35 27 17 31 14 17 20 11 13 18 26 31 29 23 20 22 20 22 23 19 13 13 15 19 15 11 11 12 16 18 20 17 14 13 10 13 13 12 13 13 16 15 19 22 22
12 22 32 34 34 34 33 22 18 17 31 13 15 24 27 28 25 22 21 20 26 26 23 19 13 13 17 15 13 13 14 12 13 17 15 15 16 15 13 15 12 13 14 15 14 15 19 22 18
22 21 26 31 32 31 18 23 14 24 29 18 19 24 27 27 25 26 29 28 28 25 23 17 11 13 16 14 15 17 18 15 14 13 15 17 19 18 15 14 12 12 12 15 14 14 20 21 17
23 12 12 20 24 20 26 17 7 26 28 25 24 23 27 27 27 31 35 34 31 27 23 15 10 12 13 12 13 17 15 16 14 14 14 17 19 15 14 14 13 12 12 15 16 14 19 19 17
6 5 10 10 15 25 12 21 15 27 26 23 25 25 29 30 33 33 36 34 31 28 21 12 10 9 8 8 12 14 13 11 13 15 14 16 17 18 16 13 13 11 12 14 18 15 18 23 19
4 14 18 19 14 13 8 18 12 30 26 26 25 26 26 35 34 34 38 35 31 27 19 11 7 7 6 7 11 13 11 10 11 13 13 13 16 17 18 15 10 10 9 14 17 16 17 21 20
11 8 7 18 17 8 11 13 13 34 28 29 27 30 27 34 34 33 38 34 30 23 14 8 6 3 4 7 10 9 9 10 12 14 14 13 11 13 14 11 10 9 9 15 18 17 17 17 18
11 6 11 18 17 6 10 15 16 16 12 14 27 32 33 22 25 33 37 34 27 20 11 7 4 1 3 5 6 9 11 11 12 13 15 11 10 11 12 9 9 11 11 16 18 18 18 17 16
13 13 19 20 18 5 14 22 20 8 9 23 29 27 25 17 23 36 37 32 26 18 10 7 2 1 1 5 8 11 12 9 11 9 13 11 1 8 8 5 8 12 14 17 18 19 21 19 19
16 18 20 19 14 9 8 11 13 10 13 19 19 26 19 22 37 39 35 29 24 15 9 6 3 0 1 5 9 11 9 9 10 8 12 5 2 6 6 6 7 12 15 20 20 18 19 22 22
18 21 19 20 11 8 7 6 6 6 7 5 9 8 18 29 37 41 35 30 23 13 10 5 3 1 1 5 10 12 12 12 7 8 8 2 2 3 7 6 9 10 14 20 20 19 19 22 26
21 14 15 14 13 3 20 2 8 4 5 9 6 15 24 33 41 40 36 29 19 12 11 4 2 2 2 5 11 14 12 7 4 5 4 3 1 4 5 7 9 9 12 16 21 21 20 23 23
23 7 8 9 7 8 15 5 14 5 7 4 0 16 27 31 36 36 31 24 17 13 11 5 3 4 4 4 10 12 6 5 6 5 4 3 2 4 8 9 11 9 12 16 18 19 21 21 20
13 9 5 4 6 8 8 5 13 8 8 8 9 17 28 33 35 34 31 25 19 17 13 6 5 4 6 5 7 6 6 5 8 7 6 4 2 2 5 13 14 13 12 15 16 18 20 20 22
24 14 6 7 4 4 7 7 11 8 9 19 26 28 32 33 33 35 30 25 18 17 13 7 7 6 7 3 5 3 6 6 9 8 6 2 4 7 7 13 16 15 15 15 16 18 18 19 19
10 17 13 3 2 2 5 5 6 5 6 12 17 27 30 34 35 33 29 24 19 18 12 8 10 9 8 3 1 4 6 5 8 9 5 4 7 7 7 11 15 16 15 15 16 16 16 18 20
21 5 8 0 8 7 4 3 6 5 8 10 11 18 27 34 34 32 29 24 19 15 13 12 12 10 7 3 2 5 6 6 7 7 6 6 5 8 9 11 14 16 18 17 17 16 16 22 20
7 19 8 7 7 8 5 9 7 11 12 15 15 25 37 36 36 33 30 24 20 16 17 13 13 11 8 4 2 3 5 7 7 7 6 7 7 7 9 11 14 17 17 18 20 18 19 21 18
18 9 21 11 7 3 6 9 6 9 16 17 18 29 35 36 37 32 29 26 23 21 19 14 14 11 8 4 4 3 4 6 7 11 8 8 6 8 8 11 12 15 18 19 19 18 18 20 22
Wind_Direction
171 182 217 276 28 69 262 261 265 282 190 197 146 143 144 74 162 214 154 162 166 188 202 213 241 281 281 293 306 306 297 285 275 270 269 266 250 260 271 277 283 279 281 274 265 259 238 231 231
200 203 291 272 103 15 264 246 272 279 242 151 118 125 111 189 142 153 165 184 204 206 216 249 268 269 263 270 287 298 295 294 287 278 278 276 270 272 266 268 270 270 276 273 269 260 251 236 237
203 218 271 166 186 200 217 252 325 288 196 193 119 139 137 159 173 172 182 183 187 199 228 243 219 220 239 276 296 300 296 292 282 273 274 269 273 273 273 268 263 266 262 268 269 262 254 245 232
208 221 241 195 240 257 239 277 228 291 345 219 149 72 90 167 174 180 174 177 195 203 212 227 231 243 265 293 307 306 307 297 275 267 269 274 270 271 273 269 265 265 260 255 260 269 259 250 237
205 249 277 260 261 267 280 265 300 322 292 114 151 163 126 162 184 169 175 189 205 195 205 221 250 277 291 306 306 310 312 303 286 274 269 270 267 268 266 265 267 263 259 255 253 253 259 243 241
212 244 335 264 264 276 300 299 348 302 282 129 115 141 165 190 190 168 188 193 207 223 224 235 263 273 271 289 303 309 315 309 302 294 289 276 269 265 264 265 264 262 259 254 249 251 245 247 244
158 86 234 263 283 300 252 276 282 253 246 219 166 138 179 181 190 185 199 201 212 215 237 241 262 255 261 271 291 301 308 300 303 300 302 312 289 275 269 264 258 255 250 249 248 244 248 242 238
189 128 283 249 278 285 288 329 326 256 254 248 175 168 185 192 190 192 201 210 204 221 232 240 240 238 250 265 291 304 301 299 299 287 299 310 307 297 286 272 262 256 254 250 249 247 240 238 234
203 131 261 246 231 262 294 295 304 318 283 218 224 210 251 193 187 190 197 206 212 222 222 230 228 232 253 289 308 303 286 279 283 280 298 305 308 310 298 280 265 257 256 252 240 239 235 232 229
186 157 239 236 259 269 280 276 288 301 313 327 177 201 195 181 186 194 204 208 213 218 215 228 223 242 269 310 323 308 280 275 283 289 296 299 306 306 299 281 271 269 249 253 246 237 230 225 223
206 214 241 265 261 264 273 285 287 291 311 254 191 182 178 179 190 203 219 219 222 227 219 212 219 247 296 321 328 323 298 283 279 280 288 301 294 292 303 290 284 268 259 248 250 236 225 217 220
265 249 254 259 265 268 265 275 258 270 276 278 212 201 186 187 198 207 209 211 214 197 205 217 235 276 306 321 333 333 332 306 278 279 285 280 279 282 293 301 286 277 261 254 235 230 222 215 223
247 250 254 257 264 268 272 262 246 263 284 232 198 195 199 202 209 213 207 207 213 212 218 228 250 291 305 323 333 331 327 313 299 280 278 270 275 276 288 301 284 282 271 252 236 225 215 212 209
245 243 256 264 267 271 271 271 253 267 276 233 208 200 207 204 212 207 203 210 214 219 224 230 256 287 307 326 328 326 317 305 304 296 279 268 267 275 274 289 282 275 281 244 232 222 207 206 205
266 272 278 268 268 270 283 275 236 270 263 229 201 218 213 212 214 214 208 214 221 221 223 227 265 288 311 322 320 319 312 301 304 301 283 271 269 268 270 275 276 274 272 246 223 210 202 202 204
298 289 265 261 270 268 241 270 271 275 250 234 232 232 221 221 220 216 213 214 213 221 217 226 267 292 312 313 318 308 310 313 313 302 286 268 266 269 269 273 274 272 270 236 207 199 199 201 202
225 255 263 271 255 266 221 269 267 278 256 231 229 247 260 235 218 217 208 210 215 215 215 239 255 293 320 319 311 307 306 314 324 324 301 284 259 259 261 265 263 273 261 199 196 197 199 193 194
226 240 245 254 252 251 268 270 275 278 246 228 235 252 248 232 227 216 202 206 210 210 213 225 243 287 342 326 317 321 316 322 320 322 325 299 271 247 246 248 245 247 209 180 187 190 186 186 184
243 250 252 257 262 250 254 264 260 269 236 229 237 251 256 249 241 208 197 199 201 201 201 216 238 349 358 328 329 323 324 314 316 324 326 321 284 231 230 227 223 214 194 185 183 184 181 183 189
225 247 255 270 271 268 279 273 255 245 231 228 233 249 250 209 191 182 187 194 200 192 198 207 220 127 5 345 342 333 326 326 322 327 339 333 264 190 206 225 197 194 185 185 186 189 186 188 187
224 227 245 251 274 268 272 280 271 274 240 263 269 259 252 207 179 181 185 190 189 184 202 193 170 152 267 347 347 336 335 332 327 320 334 315 188 188 199 183 184 184 186 187 187 189 194 184 178
233 224 237 248 258 258 159 268 290 247 239 233 279 248 204 188 184 183 181 185 179 185 185 185 154 257 228 331 334 338 338 336 335 339 346 336 211 231 187 184 186 185 186 191 191 192 184 177 172
236 222 237 251 246 237 276 216 259 285 280 282 232 191 187 185 184 180 186 179 179 186 182 160 158 186 151 327 327 336 336 349 24 1 340 332 298 223 203 186 197 177 183 182 186 192 185 183 188
236 250 250 261 241 242 249 179 278 225 221 246 129 189 184 180 178 183 179 177 176 177 177 169 170 139 154 280 327 343 16 71 27 357 335 319 278 216 207 180 185 175 181 179 182 187 187 187 192
208 194 243 266 210 225 226 225 252 252 236 203 169 165 176 178 180 179 177 177 177 178 177 178 162 150 173 254 344 24 70 41 7 14 10 357 131 169 171 171 179 170 169 178 176 183 183 188 193
221 199 194 198 200 199 224 212 247 221 260 204 168 165 172 180 181 178 180 180 179 179 180 179 163 171 182 264 349 62 40 41 28 24 18 97 156 139 140 167 170 168 169 170 173 181 183 186 189
205 218 203 166 223 85 215 268 355 119 104 124 144 154 169 177 179 178 181 182 180 181 186 184 180 183 189 271 13 65 28 18 21 30 31 82 125 113 126 153 172 172 179 176 174 176 183 185 184
218 153 180 202 204 224 276 214 222 166 173 152 149 166 171 178 178 178 182 181 184 185 180 181 188 189 187 266 104 45 59 45 32 34 71 95 124 119 133 145 153 162 167 173 174 175 183 176 184
180 218 223 177 180 192 208 247 210 194 177 169 177 175 176 179 180 180 182 184 186 183 183 182 183 186 191 225 179 62 64 54 51 45 98 102 91 118 132 143 152 152 157 169 174 173 176 180 181
210 184 210 221 217 207 172 246 252 213 167 169 174 176 178 181 181 181 182 183 185 185 185 188 186 196 205 206 205 140 82 75 74 63 86 110 103 109 127 136 143 151 157 166 173 166 170 179 172
Height
1531 1532 1534 1534 1542 1540 1542 1528 1510 1507 1501 1495 1495 1494 1497 1498 1499 1514 1504 1507 1509 1511 1514 1515 1516 1517 1518 1519 1520 1518 1520 1519 1515 1514 1515 1516 1516 1517 1517 1516 1516 1516 1516 1517 1517 1518 1518 1519 1519
1531 1532 1534 1534 1545 1553 1542 1514 1508 1502 1497 1496 1496 1494 1496 1502 1499 1500 1502 1507 1510 1511 1512 1514 1514 1515 1515 1515 1515 1516 1516 1515 1516 1513 1512 1513 1513 1514 1515 1515 1514 1514 1514 1514 1515 1515 1515 1516 1517
1531 1532 1534 1535 1541 1546 1538 1510 1504 1496 1496 1494 1495 1495 1496 1497 1499 1498 1501 1504 1507 1509 1511 1510 1512 1513 1513 1513 1513 1511 1512 1511 1512 1512 1511 1510 1511 1510 1511 1512 1512 1511 1512 1512 1512 1513 1513 1513 1515
1531 1532 1533 1537 1536 1522 1516 1506 1498 1496 1495 1493 1492 1498 1500 1499 1498 1499 1501 1504 1506 1506 1507 1509 1509 1510 1510 1510 1509 1509 1508 1508 1508 1508 1508 1507 1507 1507 1507 1508 1508 1508 1508 1509 1510 1509 1509 1510 1512
1530 1530 1536 1534 1525 1514 1508 1500 1500 1493 1492 1489 1494 1498 1498 1498 1499 1499 1499 1501 1503 1505 1505 1506 1508 1508 1508 1507 1505 1506 1505 1505 1504 1505 1504 1503 1503 1503 1503 1503 1503 1503 1504 1505 1505 1506 1506 1508 1509
1529 1530 1540 1540 1521 1508 1506 1498 1494 1493 1493 1492 1492 1495 1496 1496 1495 1497 1497 1499 1501 1502 1503 1503 1505 1506 1505 1507 1505 1503 1501 1501 1501 1501 1500 1499 1498 1499 1499 1499 1498 1498 1499 1500 1501 1502 1503 1504 1505
1527 1532 1537 1527 1518 1507 1504 1496 1492 1489 1488 1490 1491 1495 1495 1494 1494 1496 1496 1498 1500 1501 1501 1501 1502 1504 1503 1502 1500 1501 1499 1498 1498 1497 1496 1495 1494 1494 1493 1493 1492 1493 1494 1494 1496 1497 1499 1500 1502
1524 1527 1530 1524 1518 1510 1499 1497 1493 1490 1487 1487 1486 1489 1493 1491 1493 1495 1496 1497 1498 1498 1499 1499 1498 1500 1500 1499 1498 1496 1495 1495 1494 1494 1493 1492 1491 1490 1488 1487 1486 1487 1487 1488 1489 1491 1494 1496 1498
1522 1530 1532 1522 1514 1501 1494 1496 1493 1490 1487 1485 1484 1480 1481 1484 1490 1493 1494 1496 1497 1496 1495 1496 1495 1496 1496 1496 1494 1493 1492 1491 1491 1490 1489 1488 1488 1486 1484 1483 1483 1483 1483 1484 1484 1486 1489 1492 1494
1516 1525 1514 1500 1499 1499 1492 1492 1491 1488 1485 1483 1480 1481 1480 1482 1485 1488 1490 1493 1493 1493 1493 1492 1493 1494 1495 1493 1490 1489 1489 1488 1487 1487 1485 1485 1483 1482 1481 1480 1479 1479 1480 1480 1481 1483 1485 1488 1490
1505 1510 1492 1497 1495 1494 1491 1487 1486 1483 1483 1480 1477 1477 1478 1481 1483 1485 1487 1489 1490 1490 1491 1491 1491 1493 1492 1489 1487 1485 1484 1483 1483 1483 1482 1481 1481 1479 1479 1478 1477 1476 1476 1477 1478 1479 1480 1483 1486
1507 1498 1497 1493 1490 1490 1489 1484 1482 1480 1477 1476 1474 1474 1475 1477 1479 1480 1482 1483 1483 1484 1488 1488 1488 1489 1487 1485 1484 1484 1482 1481 1480 1480 1479 1478 1478 1477 1476 1475 1474 1473 1473 1473 1474 1475 1478 1480 1484
1497 1493 1489 1488 1487 1486 1483 1481 1477 1472 1472 1474 1471 1470 1469 1472 1474 1476 1478 1479 1480 1479 1481 1482 1484 1484 1483 1482 1482 1481 1480 1478 1477 1476 1475 1474 1474 1473 1472 1472 1471 1470 1470 1470 1471 1473 1474 1478 1481
1483 1481 1483 1483 1481 1481 1479 1473 1471 1467 1468 1469 1467 1466 1465 1467 1468 1471 1473 1474 1475 1477 1477 1477 1478 1479 1478 1478 1478 1477 1476 1475 1474 1472 1472 1471 1470 1469 1469 1468 1468 1467 1466 1466 1468 1470 1472 1476 1480
1486 1485 1478 1477 1477 1474 1473 1470 1465 1463 1463 1463 1461 1460 1461 1462 1463 1462 1464 1466 1469 1471 1474 1474 1474 1475 1474 1475 1475 1475 1473 1471 1470 1469 1467 1466 1465 1464 1465 1465 1464 1464 1463 1463 1465 1468 1471 1475 1479
1484 1482 1486 1473 1472 1467 1474 1472 1458 1457 1458 1455 1456 1456 1456 1456 1456 1457 1459 1462 1466 1467 1471 1471 1471 1471 1472 1472 1473 1472 1471 1468 1467 1465 1463 1462 1461 1460 1461 1461 1461 1460 1459 1459 1463 1466 1469 1473 1477
1487 1490 1482 1472 1466 1465 1468 1465 1453 1450 1452 1448 1449 1450 1450 1450 1452 1453 1456 1459 1461 1464 1468 1469 1469 1468 1469 1470 1471 1470 1468 1466 1464 1462 1459 1458 1457 1457 1457 1459 1459 1458 1456 1457 1462 1464 1468 1471 1476
1485 1485 1475 1469 1457 1462 1463 1461 1451 1444 1443 1441 1442 1444 1443 1444 1447 1449 1454 1458 1459 1463 1466 1467 1467 1467 1467 1468 1468 1468 1466 1464 1462 1460 1457 1454 1453 1454 1454 1455 1456 1456 1456 1458 1461 1465 1468 1472 1477
1470 1473 1473 1457 1449 1461 1458 1454 1444 1438 1438 1437 1437 1437 1437 1438 1441 1446 1451 1455 1457 1462 1464 1464 1464 1464 1466 1466 1467 1466 1464 1462 1460 1457 1454 1451 1449 1450 1452 1453 1454 1455 1455 1458 1461 1465 1469 1473 1476
1468 1472 1467 1452 1448 1459 1456 1450 1436 1434 1436 1431 1429 1432 1433 1435 1436 1442 1447 1451 1455 1459 1461 1462 1462 1463 1464 1465 1466 1464 1462 1460 1457 1456 1453 1450 1447 1449 1450 1452 1452 1453 1455 1458 1461 1465 1468 1472 1475
1461 1466 1460 1459 1450 1452 1456 1456 1443 1429 1428 1429 1428 1428 1428 1427 1431 1439 1444 1449 1454 1457 1459 1460 1461 1461 1463 1465 1465 1463 1461 1459 1456 1454 1452 1449 1449 1449 1450 1452 1452 1453 1454 1458 1461 1465 1468 1471 1475
1457 1446 1452 1453 1460 1473 1448 1474 1450 1432 1427 1424 1422 1419 1421 1424 1428 1435 1443 1448 1452 1456 1457 1458 1459 1460 1462 1464 1464 1462 1459 1456 1454 1453 1451 1449 1449 1449 1450 1451 1452 1453 1454 1457 1462 1465 1469 1473 1474
1438 1444 1447 1449 1453 1460 1448 1468 1451 1431 1427 1421 1419 1417 1421 1422 1424 1433 1440 1446 1452 1454 1456 1457 1459 1460 1462 1464 1463 1461 1458 1455 1454 1453 1451 1450 1449 1450 1451 1452 1453 1453 1454 1457 1461 1465 1470 1474 1475
1431 1442 1445 1447 1453 1471 1449 1459 1439 1436 1423 1417 1414 1416 1418 1425 1429 1436 1443 1447 1451 1453 1455 1457 1459 1460 1462 1463 1462 1460 1457 1455 1454 1453 1451 1449 1448 1449 1450 1452 1453 1453 1455 1457 1461 1465 1470 1474 1477
1430 1448 1473 1478 1469 1468 1441 1452 1431 1418 1412 1412 1413 1416 1420 1425 1430 1436 1441 1445 1449 1451 1454 1456 1458 1460 1462 1462 1462 1460 1458 1456 1455 1453 1451 1450 1448 1448 1450 1452 1453 1454 1456 1459 1462 1466 1470 1475 1478
1424 1434 1455 1474 1473 1459 1438 1448 1426 1405 1402 1403 1408 1412 1419 1425 1430 1433 1439 1444 1447 1450 1453 1455 1457 1460 1461 1462 1462 1460 1459 1457 1456 1454 1451 1450 1449 1449 1450 1452 1454 1456 1458 1461 1464 1468 1472 1475 1479
1416 1427 1422 1441 1438 1452 1441 1423 1409 1405 1405 1405 1412 1415 1419 1423 1427 1432 1439 1443 1446 1450 1452 1454 1457 1460 1462 1462 1462 1461 1460 1458 1457 1454 1452 1451 1451 1450 1451 1452 1454 1457 1459 1462 1465 1469 1472 1475 1479
1396 1403 1433 1445 1457 1463 1445 1428 1430 1415 1412 1410 1413 1415 1419 1423 1427 1432 1438 1442 1445 1449 1452 1454 1456 1459 1462 1462 1462 1462 1461 1460 1458 1456 1455 1453 1452 1452 1453 1454 1455 1458 1461 1464 1467 1470 1473 1476 1480
1402 1406 1412 1418 1432 1449 1455 1433 1409 1406 1406 1409 1409 1410 1415 1420 1425 1430 1436 1441 1444 1448 1451 1453 1456 1459 1461 1461 1462 1463 1462 1461 1459 1457 1457 1456 1455 1455 1455 1456 1458 1459 1462 1465 1468 1472 1475 1478 1481
1382 1394 1397 1413 1426 1421 1430 1424 1392 1393 1396 1400 1405 1409 1413 1417 1423 1429 1434 1439 1443 1447 1450 1452 1455 1458 1460 1461 1463 1464 1463 1462 1461 1460 1459 1459 1459 1459 1459 1460 1461 1463 1465 1467 1470 1473 1476 1479 1483